Wind_Speed
3 2 2 2 2 2 2 2 2 1 2 2 3 2 2 2 2 2 2 3 3 2 2 2 3 4 5 6 6 6 6 6 5 5 5 5 5 4 3 3 2 2 2 3 4 5 5 6 6
4 4 4 3 3 3 3 3 2 3 3 3 3 3 1 1 1 1 2 3 2 2 2 3 3 4 4 5 6 6 6 6 6 6 6 5 5 5 4 3 3 3 3 4 4 5 6 6 7
5 4 4 4 4 4 4 4 3 3 3 3 3 2 2 1 1 1 2 2 2 2 2 3 3 3 4 5 6 6 6 6 6 6 6 6 6 5 4 4 4 4 4 4 5 5 6 7 7
5 5 5 5 5 5 5 5 4 4 3 3 3 3 3 2 1 2 2 1 1 1 2 2 3 3 4 4 5 6 6 6 6 6 6 6 6 5 5 4 4 4 4 5 5 6 7 7 7
6 5 5 6 6 5 5 5 4 4 4 4 3 3 3 2 2 2 2 2 2 2 2 2 3 3 4 4 5 5 5 6 6 6 7 7 6 6 5 5 4 5 5 5 5 5 7 7 8
7 6 6 6 6 6 6 5 5 5 4 4 4 4 3 3 3 3 2 2 1 1 2 2 3 3 3 4 4 4 5 5 6 6 7 7 7 6 5 5 5 4 4 4 4 5 6 7 8
8 7 7 7 7 7 7 6 6 5 5 4 4 4 3 2 3 2 2 2 2 2 1 2 2 3 3 4 4 4 4 5 5 6 7 7 7 6 6 5 5 4 4 4 4 4 5 6 7
8 8 8 7 7 7 7 7 6 6 5 4 4 3 3 3 2 2 1 2 2 2 2 1 2 3 3 4 3 4 4 5 6 6 7 6 6 6 6 5 5 5 4 4 4 4 5 5 6
8 8 8 8 8 8 7 7 6 6 5 4 4 4 4 3 2 2 3 3 3 3 2 1 1 2 3 3 3 4 4 5 6 6 6 6 6 7 6 6 5 5 4 3 3 4 4 5 6
9 9 9 8 8 8 7 7 7 6 5 5 5 5 4 4 3 3 4 4 3 3 2 1 0 1 2 2 3 3 4 5 5 6 6 6 6 7 7 7 5 5 4 3 3 3 3 4 6
9 9 9 9 9 8 8 7 7 6 6 6 6 5 5 5 4 4 4 4 4 4 3 2 0 1 1 2 3 3 4 4 5 5 6 6 6 7 7 7 6 5 3 2 2 2 3 4 5
10 10 10 10 10 9 9 8 8 7 6 7 7 6 7 6 6 5 5 4 5 5 3 2 1 1 0 1 2 3 4 4 4 5 6 6 7 7 7 7 6 5 4 2 1 1 2 4 6
10 10 11 11 10 10 9 8 8 8 7 7 7 7 7 7 6 6 6 4 4 5 4 3 2 1 1 1 2 3 4 4 5 5 6 6 7 7 7 7 6 5 4 3 2 1 1 4 5
9 10 11 11 10 9 8 8 8 8 8 7 7 7 8 7 6 6 6 5 4 4 4 4 3 2 2 1 1 3 4 4 5 6 6 6 6 7 7 6 6 5 4 3 2 1 1 2 4
10 10 10 10 9 9 9 8 8 8 8 8 7 7 7 7 7 7 7 6 6 5 4 4 3 3 2 1 1 2 3 4 5 5 6 6 6 6 6 6 6 5 4 4 3 2 1 2 3
11 11 11 10 10 9 9 8 8 8 7 7 7 7 7 7 7 7 7 6 6 6 6 4 3 3 2 1 1 2 3 3 4 5 5 5 6 6 6 6 6 5 5 4 4 3 2 2 3
11 11 11 11 10 10 9 9 9 9 8 7 7 7 8 7 7 7 7 7 6 6 5 5 3 2 2 2 1 1 2 2 3 4 5 5 6 6 6 6 6 5 5 4 3 3 2 2 3
12 12 11 10 10 10 9 9 10 9 9 8 7 7 7 7 7 7 7 7 6 5 5 5 3 3 2 2 1 1 2 2 3 4 5 5 5 5 5 6 6 5 5 4 4 3 3 2 2
11 11 10 10 11 11 10 10 9 10 10 9 8 8 8 7 7 8 8 8 7 6 5 5 4 3 2 2 1 1 1 1 2 3 4 5 5 5 6 6 6 5 5 4 4 4 3 2 2
11 11 10 10 10 10 10 10 10 10 10 10 8 8 8 8 8 9 8 7 7 6 6 5 4 4 3 2 1 1 1 1 1 2 3 4 5 5 5 5 5 5 5 5 4 4 3 2 2
11 11 10 10 10 10 10 11 11 10 10 10 9 9 10 10 9 9 8 8 8 7 7 6 5 4 4 3 2 1 1 1 1 1 2 3 4 5 5 5 5 5 5 5 5 4 3 2 2
10 10 10 9 9 9 9 9 10 10 10 9 10 10 10 10 9 9 9 9 9 8 8 7 6 5 4 4 3 2 1 0 1 1 2 2 3 4 5 5 5 5 5 5 5 4 4 3 2
10 10 10 10 9 9 9 9 9 10 9 9 9 10 10 10 9 9 9 10 9 9 8 8 7 6 5 4 3 2 1 1 1 1 2 2 3 3 4 5 4 4 5 5 4 4 4 3 3
10 10 10 10 10 9 9 9 8 9 9 9 9 10 11 10 10 10 10 10 10 9 9 9 8 7 6 5 4 3 3 2 1 1 1 1 2 3 4 4 4 4 5 5 5 4 4 3 3
12 11 11 11 10 9 8 9 8 9 9 9 10 11 11 11 10 10 10 10 10 9 9 9 9 8 7 6 5 5 4 3 2 1 1 0 1 2 3 3 4 4 5 5 5 5 4 4 4
12 11 11 11 10 9 9 9 8 9 9 9 10 10 11 11 10 10 10 10 10 10 9 9 10 9 8 7 6 6 5 4 4 2 2 1 1 1 2 2 3 3 4 4 4 4 4 4 4
11 10 10 10 9 9 9 8 8 8 8 8 9 9 10 11 11 11 11 10 10 10 10 10 9 9 8 8 7 6 6 6 5 4 3 2 2 2 2 1 1 2 3 4 4 4 5 5 5
11 11 10 10 10 8 8 8 7 8 8 8 8 8 9 11 11 11 11 11 11 11 11 11 9 9 9 7 7 7 7 7 6 6 5 4 3 2 3 3 3 3 3 3 4 4 5 5 5
12 12 11 10 10 10 9 8 8 8 8 8 8 8 9 10 10 10 11 11 11 11 11 11 11 10 9 8 8 7 8 8 7 7 6 6 5 5 5 5 4 5 5 5 5 5 5 5 6
13 12 12 11 10 10 10 9 8 9 9 9 9 8 8 9 8 8 9 10 11 11 10 11 10 10 9 8 8 8 9 9 9 8 8 8 7 7 7 6 6 6 6 7 7 6 6 7 7
Wind_Direction
309 294 289 311 343 343 339 336 333 336 342 348 351 356 15 17 32 31 26 21 21 27 16 14 17 16 16 15 13 10 9 8 3 358 355 352 352 347 340 327 310 294 271 253 241 233 228 224 220
285 282 279 297 310 320 329 327 325 316 319 328 340 335 336 358 19 18 9 9 9 11 8 5 10 8 11 12 11 7 5 3 358 354 351 350 346 341 334 321 310 293 277 263 252 239 229 224 223
282 284 281 291 296 306 314 316 318 313 305 306 323 332 343 348 342 341 346 352 4 8 2 4 10 6 3 5 7 9 7 7 4 358 355 353 347 339 333 320 308 297 282 267 256 243 231 227 227
282 285 282 282 288 295 301 306 310 305 301 305 312 319 335 345 316 323 330 311 327 353 355 355 360 2 2 4 5 5 7 9 8 2 359 355 348 341 333 323 310 294 281 271 261 244 233 230 229
279 283 282 282 288 291 295 293 296 300 304 304 308 307 319 321 304 309 310 292 294 319 341 348 351 356 2 5 6 8 10 12 11 6 1 356 351 344 334 326 318 305 294 281 269 249 238 234 232
279 282 278 281 285 289 291 293 295 295 300 304 304 301 298 308 310 301 284 278 279 303 327 346 351 353 1 5 7 12 16 15 10 7 4 360 355 351 345 336 321 310 300 288 272 251 238 233 231
279 280 282 279 281 286 290 292 292 290 284 293 302 300 285 300 318 316 277 242 248 263 298 347 351 2 6 4 4 14 17 12 7 5 2 360 357 353 345 340 333 318 302 290 275 256 245 238 232
277 280 282 280 281 283 284 285 284 279 282 289 286 289 285 287 298 295 266 239 240 257 278 315 344 356 1 5 11 12 10 4 1 2 3 3 1 356 346 340 335 325 311 296 279 256 247 240 229
278 279 279 279 280 283 281 277 277 274 272 276 273 273 279 276 284 268 254 239 246 257 276 271 342 5 359 9 14 11 4 358 360 2 0 3 5 359 351 344 341 331 321 307 284 260 245 234 225
278 278 277 277 281 283 280 272 268 267 269 272 271 273 275 268 264 255 248 241 247 255 259 249 357 8 9 17 12 9 3 358 360 3 5 6 3 2 360 355 351 345 340 326 297 268 241 225 219
280 278 277 276 276 277 276 267 261 261 263 266 271 268 266 266 260 254 247 237 241 241 234 235 276 7 11 1 4 4 357 1 2 4 7 5 4 6 5 2 0 2 1 344 311 271 238 217 210
277 279 278 275 272 270 272 266 256 256 259 260 266 261 256 258 249 254 247 242 236 229 229 233 242 254 288 333 2 7 5 2 2 7 6 5 4 7 9 11 15 17 17 11 350 266 231 214 205
276 275 275 274 272 270 269 266 258 255 257 263 261 259 256 253 250 242 241 231 226 227 224 223 220 231 261 315 359 5 5 4 5 11 10 9 9 10 13 18 21 25 27 27 34 26 227 206 200
277 275 278 278 271 270 269 267 263 257 257 264 263 257 254 254 249 231 230 233 230 231 226 215 224 239 253 275 349 5 6 3 6 11 11 13 14 16 21 23 27 32 34 38 43 42 193 186 191
278 279 279 277 271 269 268 264 265 255 258 260 257 251 248 248 240 230 229 235 235 231 225 217 219 234 245 259 322 352 3 4 7 12 16 20 20 21 22 25 31 34 36 41 47 59 83 158 176
277 279 278 275 272 266 264 261 263 255 254 254 251 247 245 241 239 235 230 227 231 233 224 216 215 227 234 247 283 336 357 4 13 15 19 24 25 25 25 29 37 40 41 44 51 61 77 125 155
277 280 278 276 271 265 262 258 258 253 248 250 250 249 243 235 233 232 227 223 231 228 219 212 215 221 223 229 257 348 358 4 14 15 19 22 26 28 30 34 40 44 47 51 57 68 79 107 140
280 281 279 274 268 263 260 257 253 250 247 244 244 244 241 238 235 235 232 227 232 223 212 206 215 219 222 214 218 339 354 12 22 21 25 28 27 31 33 37 41 47 50 55 60 74 80 97 118
278 279 279 274 268 265 258 256 253 252 247 243 243 241 245 243 239 236 233 227 226 217 210 210 210 205 213 211 225 294 337 15 25 24 33 34 34 33 34 38 43 47 51 56 59 66 68 81 100
277 278 277 274 270 267 261 252 249 251 242 239 241 242 243 246 242 234 233 221 220 217 213 207 210 211 211 204 215 260 310 7 20 27 34 35 33 33 38 45 48 49 52 55 60 68 70 76 88
278 276 272 271 269 270 265 255 250 249 242 237 240 242 245 245 240 230 225 219 215 216 219 210 209 217 214 210 215 235 280 18 26 34 42 35 35 37 40 44 47 49 49 48 49 54 62 68 70
274 272 271 272 272 271 267 261 252 249 243 236 239 242 241 242 237 229 225 219 215 215 218 216 215 220 217 214 219 219 220 27 58 60 58 49 39 37 41 41 43 44 44 44 42 41 44 48 45
268 268 267 267 268 270 268 263 255 251 243 237 239 241 238 240 235 229 225 219 216 217 216 217 214 221 222 220 224 211 212 210 149 107 82 51 37 36 40 40 42 42 40 38 37 34 30 29 25
265 264 262 262 269 271 270 269 258 246 241 237 236 237 235 237 233 228 222 221 220 218 218 217 214 216 219 220 223 210 210 200 170 143 121 34 31 32 35 38 40 43 42 38 36 31 25 20 19
264 260 259 262 267 269 270 266 252 247 251 243 241 239 236 232 231 230 229 224 218 217 217 215 212 214 223 227 225 218 212 209 202 189 177 320 3 16 31 35 37 41 39 34 31 28 26 22 16
263 260 259 262 266 267 265 263 253 252 254 249 243 240 234 228 228 228 227 223 217 216 216 218 215 216 222 226 223 218 219 218 216 215 216 244 294 339 2 17 29 32 29 26 23 20 11 7 4
256 255 256 260 263 267 261 259 255 255 256 252 247 242 233 227 226 226 226 222 220 218 219 220 216 216 218 221 219 217 223 224 225 227 226 243 263 284 309 323 353 7 9 15 14 5 357 353 346
249 254 256 257 259 256 254 257 257 258 260 255 249 241 233 229 231 229 226 220 220 221 223 223 221 216 216 220 217 220 226 232 235 232 233 246 262 277 288 291 307 319 327 338 345 349 351 349 342
247 250 253 255 256 258 252 257 260 258 257 250 243 242 236 230 228 224 222 220 221 223 227 225 223 221 221 223 222 228 233 235 236 237 242 252 255 262 271 278 285 292 298 303 312 324 329 330 327
244 247 250 256 258 255 250 257 254 254 250 246 243 241 235 226 218 218 221 222 221 224 227 226 222 223 223 225 229 233 236 237 240 243 247 254 258 262 265 270 275 282 285 292 298 303 307 309 313
Height
5884 5884 5884 5884 5885 5884 5884 5884 5884 5883 5883 5883 5883 5883 5883 5883 5884 5886 5884 5882 5882 5882 5881 5881 5881 5880 5879 5879 5878 5877 5876 5876 5875 5874 5874 5873 5873 5873 5873 5873 5873 5873 5873 5873 5873 5874 5875 5876 5877
5884 5884 5885 5885 5884 5884 5884 5884 5884 5883 5883 5883 5883 5883 5882 5882 5883 5883 5882 5882 5882 5882 5882 5881 5881 5880 5879 5879 5878 5877 5876 5876 5875 5874 5874 5873 5872 5872 5872 5872 5872 5872 5872 5872 5872 5873 5874 5875 5875
5883 5884 5885 5885 5884 5884 5884 5884 5883 5883 5883 5883 5883 5882 5882 5882 5882 5882 5882 5882 5882 5882 5882 5881 5881 5880 5880 5879 5878 5877 5876 5875 5875 5874 5873 5873 5872 5871 5871 5871 5871 5871 5871 5871 5871 5872 5873 5874 5874
5883 5884 5884 5884 5883 5884 5884 5883 5883 5882 5882 5882 5882 5882 5882 5882 5882 5882 5882 5882 5882 5882 5882 5882 5881 5880 5880 5879 5878 5877 5876 5875 5875 5874 5873 5872 5871 5871 5870 5870 5870 5870 5870 5870 5870 5871 5872 5872 5873
5882 5883 5883 5883 5883 5883 5883 5883 5882 5882 5882 5882 5882 5881 5881 5882 5881 5882 5882 5882 5882 5882 5882 5882 5881 5880 5880 5879 5878 5877 5876 5875 5875 5874 5873 5872 5871 5870 5870 5869 5869 5869 5869 5869 5869 5869 5870 5871 5872
5882 5882 5882 5882 5882 5882 5882 5882 5882 5881 5881 5881 5881 5881 5881 5881 5881 5881 5881 5882 5882 5882 5882 5882 5881 5880 5880 5879 5878 5877 5877 5876 5875 5874 5872 5871 5870 5869 5869 5868 5868 5868 5867 5868 5868 5868 5869 5869 5870
5881 5881 5880 5881 5881 5881 5882 5881 5881 5881 5881 5881 5881 5881 5881 5881 5881 5881 5881 5881 5882 5882 5882 5881 5881 5880 5880 5879 5878 5877 5877 5876 5875 5874 5872 5871 5870 5869 5868 5868 5867 5866 5866 5866 5866 5867 5867 5868 5869
5879 5880 5879 5880 5880 5880 5881 5880 5880 5880 5880 5880 5880 5880 5880 5880 5880 5880 5881 5881 5881 5881 5881 5881 5881 5880 5880 5879 5878 5878 5877 5876 5875 5874 5872 5871 5870 5869 5868 5867 5866 5865 5865 5865 5865 5865 5866 5867 5867
5878 5879 5878 5879 5879 5879 5879 5879 5879 5879 5879 5879 5879 5879 5880 5879 5879 5880 5880 5880 5881 5881 5881 5881 5880 5880 5879 5879 5878 5878 5877 5876 5875 5874 5872 5871 5870 5869 5867 5866 5865 5864 5864 5863 5863 5864 5864 5865 5866
5876 5877 5877 5877 5877 5877 5878 5878 5878 5878 5878 5879 5879 5879 5879 5878 5879 5879 5879 5880 5880 5880 5880 5880 5880 5880 5879 5879 5879 5878 5877 5876 5875 5874 5872 5871 5870 5868 5867 5866 5864 5863 5863 5862 5862 5863 5863 5864 5865
5874 5875 5875 5875 5875 5876 5876 5876 5877 5877 5877 5878 5878 5878 5878 5878 5878 5878 5878 5878 5879 5880 5880 5880 5880 5880 5879 5879 5878 5878 5877 5876 5875 5874 5872 5871 5869 5868 5867 5865 5864 5863 5862 5862 5862 5862 5862 5863 5864
5873 5873 5873 5873 5874 5874 5874 5875 5875 5876 5876 5876 5876 5876 5877 5877 5877 5877 5878 5878 5878 5878 5879 5879 5879 5879 5879 5879 5878 5878 5877 5876 5875 5873 5872 5871 5869 5868 5866 5865 5863 5862 5862 5861 5861 5861 5861 5862 5863
5871 5871 5871 5871 5871 5872 5872 5873 5874 5874 5874 5874 5875 5875 5876 5876 5876 5876 5877 5877 5877 5878 5878 5879 5879 5879 5879 5879 5878 5877 5876 5875 5874 5873 5872 5870 5869 5868 5866 5865 5863 5862 5862 5861 5861 5861 5861 5861 5862
5869 5869 5869 5869 5870 5870 5871 5872 5872 5872 5873 5873 5873 5874 5874 5874 5875 5875 5875 5876 5876 5877 5878 5878 5878 5878 5878 5878 5878 5877 5876 5875 5874 5873 5872 5870 5869 5868 5866 5865 5864 5863 5862 5861 5860 5860 5860 5861 5861
5868 5868 5868 5868 5868 5869 5870 5870 5870 5870 5871 5871 5872 5872 5873 5873 5874 5874 5875 5875 5876 5876 5877 5877 5878 5878 5878 5878 5877 5877 5876 5875 5874 5873 5872 5870 5869 5868 5867 5865 5864 5863 5862 5861 5861 5860 5860 5861 5861
5866 5867 5867 5867 5866 5867 5869 5869 5868 5868 5869 5870 5870 5871 5871 5872 5872 5873 5874 5874 5875 5875 5876 5877 5877 5877 5877 5877 5877 5876 5876 5875 5874 5873 5872 5871 5869 5868 5867 5866 5865 5863 5862 5862 5861 5861 5861 5861 5861
5864 5864 5864 5865 5864 5865 5866 5866 5867 5866 5867 5868 5869 5869 5870 5870 5871 5872 5872 5873 5874 5874 5875 5876 5876 5877 5877 5877 5877 5876 5876 5875 5874 5873 5872 5871 5870 5869 5868 5866 5865 5864 5863 5862 5862 5862 5862 5862 5862
5862 5862 5862 5862 5862 5863 5864 5864 5864 5864 5865 5866 5867 5868 5868 5869 5870 5870 5871 5872 5873 5873 5874 5875 5875 5876 5876 5876 5876 5876 5876 5875 5874 5874 5873 5871 5870 5869 5868 5867 5866 5865 5864 5863 5863 5862 5862 5862 5862
5860 5860 5860 5860 5860 5861 5861 5862 5862 5862 5863 5864 5865 5866 5867 5867 5868 5869 5869 5870 5871 5872 5873 5874 5875 5875 5876 5876 5876 5876 5876 5875 5875 5874 5873 5872 5871 5870 5869 5868 5867 5866 5865 5865 5864 5863 5863 5863 5863
5858 5858 5858 5858 5858 5858 5859 5859 5860 5860 5861 5862 5863 5864 5865 5866 5866 5867 5868 5869 5870 5871 5872 5873 5874 5875 5875 5875 5876 5876 5875 5875 5875 5874 5873 5873 5872 5871 5870 5869 5868 5867 5866 5865 5865 5864 5864 5863 5863
5855 5856 5856 5856 5856 5856 5857 5858 5858 5858 5859 5860 5861 5862 5863 5864 5864 5865 5866 5868 5869 5870 5871 5872 5873 5874 5874 5875 5875 5875 5875 5875 5875 5874 5874 5873 5872 5871 5870 5869 5869 5868 5867 5866 5865 5865 5864 5864 5864
5853 5854 5854 5854 5854 5854 5855 5856 5856 5856 5857 5858 5859 5860 5861 5862 5863 5863 5865 5866 5867 5869 5870 5871 5872 5873 5874 5874 5875 5875 5875 5875 5874 5874 5874 5873 5873 5872 5871 5870 5869 5869 5868 5867 5866 5866 5865 5865 5864
5852 5852 5852 5852 5852 5853 5853 5854 5856 5855 5855 5856 5857 5858 5859 5860 5861 5862 5863 5864 5866 5867 5869 5870 5871 5872 5873 5873 5874 5874 5874 5874 5874 5874 5874 5874 5873 5872 5872 5871 5870 5870 5869 5868 5867 5867 5866 5865 5865
5850 5850 5850 5850 5851 5852 5852 5852 5854 5853 5854 5854 5855 5856 5857 5858 5859 5860 5862 5863 5864 5866 5867 5868 5869 5871 5872 5872 5873 5874 5874 5874 5874 5874 5874 5874 5874 5873 5872 5872 5871 5870 5870 5869 5868 5867 5867 5866 5865
5848 5849 5849 5849 5849 5850 5850 5850 5852 5852 5852 5853 5854 5854 5855 5856 5857 5859 5860 5861 5863 5864 5866 5867 5868 5869 5870 5871 5872 5873 5873 5874 5874 5874 5874 5874 5874 5873 5873 5872 5872 5871 5870 5869 5869 5868 5867 5866 5866
5846 5847 5848 5848 5848 5849 5849 5849 5851 5850 5850 5850 5851 5852 5853 5854 5855 5857 5858 5860 5861 5863 5864 5866 5867 5868 5869 5870 5871 5872 5873 5873 5874 5874 5874 5874 5874 5873 5873 5873 5872 5872 5871 5870 5869 5868 5868 5867 5866
5844 5844 5846 5846 5846 5847 5847 5848 5849 5849 5849 5849 5849 5850 5851 5852 5854 5855 5857 5858 5860 5861 5863 5864 5865 5866 5868 5869 5870 5871 5872 5872 5873 5873 5873 5873 5873 5873 5873 5873 5872 5872 5871 5870 5870 5869 5868 5867 5866
5842 5843 5843 5844 5844 5845 5846 5847 5848 5847 5848 5848 5848 5849 5850 5851 5852 5853 5855 5856 5858 5859 5861 5862 5864 5865 5866 5867 5868 5869 5870 5871 5872 5872 5872 5873 5873 5873 5873 5873 5872 5872 5871 5870 5870 5869 5868 5867 5866
5840 5841 5841 5842 5842 5844 5844 5848 5846 5846 5846 5847 5847 5848 5848 5849 5850 5851 5852 5854 5856 5858 5859 5861 5862 5863 5865 5866 5867 5868 5869 5870 5870 5871 5871 5872 5872 5872 5872 5872 5871 5871 5871 5870 5869 5868 5867 5866 5865
5837 5838 5839 5841 5841 5841 5842 5847 5844 5845 5845 5845 5846 5846 5847 5848 5848 5850 5851 5853 5854 5856 5857 5859 5860 5862 5863 5864 5865 5866 5867 5868 5869 5869 5870 5870 5870 5870 5870 5870 5870 5870 5869 5869 5868 5867 5867 5866 5865